TimeCDT,TemperatureF,Dew PointF,Humidity,Sea Level PressureIn,VisibilityMPH,Wind Direction,Wind SpeedMPH,Gust SpeedMPH,PrecipitationIn,Events,Conditions,WindDirDegrees,DateUTC
12:54 AM,69.1,66.9,93,29.99,10.0,Calm,Calm,-,N/A,,Clear,0,2013-07-09 05:54:00
1:54 AM,69.1,68.0,96,29.98,10.0,Calm,Calm,-,N/A,,Clear,0,2013-07-09 06:54:00
2:54 AM,69.1,68.0,96,29.97,5.0,Calm,Calm,-,N/A,,Clear,0,2013-07-09 07:54:00
3:32 AM,66.2,66.2,100,29.99,1.5,Calm,Calm,-,N/A,,Clear,0,2013-07-09 08:32:00
3:35 AM,66.2,66.2,100,29.98,0.8,Calm,Calm,-,N/A,,Clear,0,2013-07-09 08:35:00
3:54 AM,68.0,66.9,96,29.96,1.2,Calm,Calm,-,N/A,,Clear,0,2013-07-09 08:54:00
3:58 AM,68.0,66.2,94,29.98,0.8,Calm,Calm,-,N/A,,Clear,0,2013-07-09 08:58:00
4:26 AM,66.2,66.2,100,29.98,1.2,South,3.5,-,N/A,,Clear,180,2013-07-09 09:26:00
4:32 AM,66.2,66.2,100,29.97,0.8,South,4.6,-,N/A,,Mist,170,2013-07-09 09:32:00
4:54 AM,66.9,66.9,100,29.94,0.5,SSE,4.6,-,N/A,Fog,Fog,160,2013-07-09 09:54:00
5:54 AM,70.0,69.1,97,29.96,0.2,South,8.1,-,N/A,Fog,Fog,180,2013-07-09 10:54:00
6:46 AM,69.8,69.8,100,29.97,1.2,SE,4.6,-,N/A,,Overcast,130,2013-07-09 11:46:00
6:54 AM,70.0,70.0,100,29.94,2.5,SE,8.1,-,N/A,,Overcast,140,2013-07-09 11:54:00
7:06 AM,71.6,69.8,94,29.95,3.0,SE,6.9,-,N/A,,Overcast,140,2013-07-09 12:06:00
7:42 AM,71.6,69.8,94,29.95,5.0,SE,6.9,-,N/A,,Mostly Cloudy,130,2013-07-09 12:42:00
7:54 AM,73.0,70.0,90,29.92,5.0,SE,6.9,-,N/A,,Mostly Cloudy,130,2013-07-09 12:54:00
8:46 AM,75.2,71.6,89,29.93,7.0,SE,6.9,-,N/A,,Partly Cloudy,130,2013-07-09 13:46:00
8:54 AM,75.0,71.1,87,29.91,7.0,SE,8.1,-,N/A,,Partly Cloudy,140,2013-07-09 13:54:00
9:54 AM,78.1,73.0,84,29.89,9.0,SSE,9.2,-,N/A,,Clear,160,2013-07-09 14:54:00
10:38 AM,75.2,73.4,94,29.91,2.5,South,6.9,-,0.04,Rain,Light Rain,190,2013-07-09 15:38:00
10:45 AM,73.4,73.4,100,29.92,1.2,SSW,11.5,19.6,0.18,Rain,Heavy Rain,210,2013-07-09 15:45:00
10:50 AM,73.4,71.6,94,29.92,1.0,SSW,12.7,19.6,0.20,Rain,Heavy Rain,200,2013-07-09 15:50:00
10:54 AM,72.0,71.1,97,29.90,1.8,SSW,6.9,17.3,0.20,Rain,Light Rain,210,2013-07-09 15:54:00
10:56 AM,71.6,71.6,100,29.91,3.0,SW,5.8,17.3,0.00,Rain,Light Rain,220,2013-07-09 15:56:00
11:05 AM,73.4,71.6,94,29.90,10.0,SW,6.9,-,0.00,,Mostly Cloudy,230,2013-07-09 16:05:00
11:35 AM,73.4,71.6,94,29.91,10.0,South,8.1,-,0.00,,Mostly Cloudy,170,2013-07-09 16:35:00
11:52 AM,73.4,71.6,94,29.90,10.0,South,9.2,-,0.00,,Mostly Cloudy,180,2013-07-09 16:52:00
11:53 AM,73.9,72.0,93,29.88,10.0,South,9.2,-,0.00,,Mostly Cloudy,170,2013-07-09 16:53:00
12:07 PM,75.2,71.6,89,29.89,9.0,SSE,9.2,-,0.00,Rain,Light Rain,160,2013-07-09 17:07:00
12:14 PM,73.4,71.6,94,29.88,9.0,South,8.1,-,0.00,Rain,Light Rain,180,2013-07-09 17:14:00
12:31 PM,73.4,71.6,94,29.87,10.0,SSE,8.1,-,0.00,Rain,Light Rain,160,2013-07-09 17:31:00
12:54 PM,79.0,72.0,79,29.85,10.0,South,11.5,-,0.00,,Scattered Clouds,190,2013-07-09 17:54:00
1:50 PM,78.8,69.8,74,29.85,10.0,SSW,12.7,-,N/A,,Mostly Cloudy,210,2013-07-09 18:50:00
1:54 PM,78.1,70.0,76,29.83,10.0,SSW,12.7,-,N/A,,Mostly Cloudy,210,2013-07-09 18:54:00
2:30 PM,80.6,71.6,74,29.84,10.0,SW,13.8,18.4,N/A,,Scattered Clouds,220,2013-07-09 19:30:00
2:54 PM,82.9,71.1,67,29.81,10.0,WSW,13.8,20.7,N/A,,Partly Cloudy,240,2013-07-09 19:54:00
3:54 PM,82.9,69.1,63,29.78,10.0,WSW,9.2,20.7,N/A,,Mostly Cloudy,250,2013-07-09 20:54:00
4:54 PM,80.1,71.1,74,29.78,10.0,WSW,6.9,-,N/A,,Scattered Clouds,240,2013-07-09 21:54:00
5:54 PM,82.9,68.0,60,29.77,10.0,West,16.1,29.9,N/A,,Partly Cloudy,270,2013-07-09 22:54:00
6:54 PM,81.0,66.0,60,29.79,10.0,West,19.6,25.3,N/A,,Clear,270,2013-07-09 23:54:00
7:54 PM,75.9,66.0,71,29.80,10.0,West,10.4,19.6,N/A,,Clear,280,2013-07-10 00:54:00
8:54 PM,75.0,66.9,76,29.81,10.0,West,6.9,-,N/A,,Clear,270,2013-07-10 01:54:00
9:54 PM,73.9,68.0,82,29.82,10.0,WNW,4.6,-,N/A,,Mostly Cloudy,300,2013-07-10 02:54:00
10:54 PM,73.9,68.0,82,29.83,10.0,West,6.9,-,N/A,,Mostly Cloudy,260,2013-07-10 03:54:00
11:54 PM,73.0,66.9,81,29.82,10.0,West,9.2,-,0.00,,Clear,280,2013-07-10 04:54:00